www.pogodaiklimat.ru

ПОГОДА в Шони, OK

  • Прогноз погоды в Шони
  • Монитор погоды в Шони
  • Климат в Шони

АРХИВ ПОГОДЫ в Шони

Время (UTC), дата Ветер
(напр.,м/с)
 
Видим.   Явления Облачность Т
(С)
Тd
(С)
f
(%)
Тe
(С)
Тes
(С)
Комфортность

P
(гПа)

Po
(гПа)
Тmin
(С)
Tmax
(С)
R
(мм)
SD
(см)
04:35 25.06 Ю  16 км    ясно  +21.6  +18.1  80  +26  +26  душно    975.1         
04:55 25.06 Ю  16 км    ясно  +21.0  +18.5  86  +26  +26  душно    975.1  +21.0  +27.6     
05:15 25.06 Ю  16 км    ясно  +20.5  +18.5  88  +24  +24  комфорт    975.1         
05:35 25.06 Ю  16 км    ясно  +20.5  +18.8  90  +25  +25  комфорт    974.7         
05:55 25.06 Ю  16 км    ясно  +20.2  +19.0  93  +24  +24  комфорт    974.7         
06:15 25.06 Ю  16 км    ясно  +20.0  +19.0  94  +24  +24  комфорт    974.4         
06:35 25.06 Ю  16 км    ясно  +20.2  +19.2  94  +24  +24  комфорт    974.4         
06:55 25.06 Ю  16 км    ясно  +20.0  +19.1  95  +24  +24  комфорт    974.4         
07:15 25.06 Ю  16 км    ясно  +19.7  +19.0  96  +23  +23  комфорт    974.4         
07:35 25.06 Ю  16 км    ясно  +19.5  +19.0  97  +23  +23  комфорт    974.4         
07:55 25.06 Ю  16 км    ясно  +19.5  +19.0  97  +22  +22  комфорт    974.4         
08:15 25.06 Ю  16 км    ясно  +19.9  +19.3  96  +23  +23  комфорт    974.7         
08:35 25.06 Ю  16 км    ясно  +19.9  +19.3  96  +24  +24  комфорт    974.7         
08:55 25.06 Ю  16 км    ясно  +20.0  +19.4  96  +24  +24  комфорт    974.7         
09:15 25.06 Ю  11 км    ясно  +19.9  +19.4  97  +23  +23  комфорт    974.7         
09:35 25.06 Ю  11 км    5/5 90 м  +19.8  +19.3  97  +23  +23  комфорт    975.1         
09:55 25.06 Ю  8 км  дымка  10/10 90 м  +20.1  +19.6  97  +24  +24  комфорт    975.1         
10:15 25.06 Ю  8 км  дымка  10/10 90 м  +20.0  +19.5  97  +24  +24  комфорт    975.4         
10:35 25.06 Ю  6 км  дымка  8/8 90 м  +19.8  +19.5  98  +23  +23  комфорт    975.7         
10:55 25.06 Ю  11 км    10/10 90 м  +20.1  +19.7  98  +24  +24  комфорт    976.0  +19.4  +20.9     
11:15 25.06 Ю  11 км    10/10 90 м  +20.5  +20.0  97  +25  +25  комфорт    976.0         
11:35 25.06 Ю  11 км    10/10 90 м  +20.7  +20.1  96  +25  +25  комфорт    976.0         
11:55 25.06 Ю  11 км    10/10 90 м                976.0         
12:15 25.06 Ю  16 км    10/10 150 м                976.4         
12:35 25.06 ЮЗ  16 км    10/10 210 м  +21.5  +20.2  92  +27  +27  душно    976.4         
12:55 25.06 Ю  16 км    10/10 210 м  +22.0  +20.5  91  +28  +28  душно    976.7         
13:15 25.06 Ю  16 км    10/10 270 м  +22.8  +20.5  87  +30  +30  очень
душно 
  976.7         
13:35 25.06 Ю  16 км    10/10 330 м  +23.4  +20.5  84  +31  +31  очень
душно 
  976.7         
13:55 25.06 ЮЗ  16 км    10/10 330 м  +23.5  +20.5  83  +29  +29  душно    976.4         
14:15 25.06 ЮЗ  16 км    10/10 390 м  +25.4  +21.3  78  +32  +32  очень
душно 
  976.7         
14:35 25.06 ЮЗ  16 км    5/5 390 м  +25.8  +21.3  76  +33  +36  очень
душно 
  976.4         
14:55 25.06 Ю  16 км    5/5 510 м  +26.3  +21.1  73  +33  +37  очень
душно 
  976.4         
15:15 25.06 Ю  16 км    ясно  +26.9  +20.8  69  +34  +41  очень
душно 
  976.7         
15:35 25.06 Ю  16 км    ясно  +27.5  +20.3  65  +34  +42  очень
душно 
  976.7         
15:55 25.06 Ю  16 км    ясно  +28.2  +21.1  65  +35  +47  очень
душно 
  977.0         
16:15 25.06 Ю  16 км    ясно  +28.1  +21.1  66  +35  +48  очень
душно 
  977.0         
16:35 25.06 Ю  16 км    5/5 840 м  +28.1  +20.7  64  +35  +41  очень
душно 
  976.7         
16:55 25.06 Ю  16 км    ясно  +28.4  +20.9  64  +36  +48  очень
душно 
  976.7         
17:15 25.06 Ю  16 км    ясно  +28.7  +21.1  64  +36  +52  опасность
солнечного
удара 
  976.7         
17:35 25.06   16 км    ясно  +28.9  +21.1  63  +36  +65  опасность
солнечного
удара 
  977.0         
17:55 25.06 Ю  16 км    5/5 990 м  +29.4  +21.2  61  +37  +44  очень
душно 
  976.7         
18:15 25.06 Ю  16 км    ясно  +29.9  +21.0  59  +37  +51  опасность
солнечного
удара 
  976.7         
18:35 25.06 Ю  16 км    ясно  +30.0  +20.7  57  +37  +52  опасность
солнечного
удара 
  976.4         
18:55 25.06 Ю  16 км    ясно                976.4         
19:15 25.06 Ю  16 км    ясно                976.0         
19:35 25.06 Ю  16 км    5/5 1200 м  +30.9  +21.1  56  +38  +46  очень
душно 
  976.0         
19:55 25.06 Ю  16 км    5/5 1260 м                975.7         
20:15 25.06 ЮВ  16 км    5/5 1290 м  +30.3  +20.5  56  +37  +42  очень
душно 
  975.7         

 

Местоположение метеостанции Shawnee Municipal Airport: широта 35.3572 долгота -96.9428 высота над уровнем моря 327 м.

В архиве по умолчанию представлена погода в Шони за последние 1-2 суток. Обновление информации о фактической погоде в базе происходит ежечасно! Архивные данные за месяц целиком и за предыдущие месяцы Вы можете получить, выбрав интересующий диапазон дат из раскрывающегося списка и нажав кнопку "Ввод!".

Внимание! Архив погоды МЕТАР в базе сайта хранится не более 60 дней. Нет смысла пытаться выбрать более раннюю дату.

Внимание! Время в таблицах - всемирное. Для получения местного времени необходимо прибавить поправку, которая в Шони равна -6 ч.

Ветер - указаны скорость ветра в м/с и направление, откуда дует ветер: С - северный, СВ - северо-восточный, В - восточный, ЮВ - юго-восточный, Ю - южный, ЮЗ - юго-западный, З - западный, СЗ - северо-западный.
Видимость - горизонтальная дальность видимости в метрах или километрах. При видимости от 1 до 10 км при отсутствии осадков обычно наблюдается дымка, при ухудшении видимости до 1 км и менее - туман. В сухую погоду видимость может ухудшаться дымом, пылью или мглою.
Атмосферные явления - указаны явления, наблюдавшиеся в указанный момент времени.
Облачность - указаны через наклонную черту верхняя и нижняя облачность в баллах и высота нижней границы облаков в метрах. Внимание: облачность, как и прочие метеорологические величины в США измеряются автоматическими метеостанциями. Указанные значения в баллах носят условный характер и показывают процент времени, в течение которого, в среднем, лазерный луч высотомера отражался от облаков обратно.
T - Температура воздуха - температура, измеренная на высоте 2 м над землей.
Td - Температура точки росы - температура, при понижении до которой содержащийся в воздухе водяной пар достигнет насыщения.
f - Относительная влажность воздуха - влажноcть воздуха, измеренная на высоте 2 м над землей.
Te - Эффективная температура - температура, которую ощущает одетый по сезону человек в тени. Характеристика душности погоды. При расчете учитывается влияние влажности воздуха и скорости ветра на теплоощущения человека.
Tes - Эффективная температура на солнце - температура, которую ощущает человек, с поправкой на солнечный нагрев. Характеристика знойности погоды. Зависит от высоты солнца над горизонтом, облачности и скорости ветра. Ночью, в пасмурную погоду, а также при ветре 12 м/с и более поправка равна нулю.
P - Атмосферное давление - приведенное к уровню моря атмосферное давление.
Po - Атмосферное давление - измеренное на уровне метеостанции атмосферное давление.
Tmin - Минимальная температура - минимум температуры воздуха на высоте 2 м над землей.
Tmax - Максимальная температура - максимум температуры воздуха на высоте 2 м над землей.
R - Количество осадков - Количество выпавших осадков за 3 или 6 часов, мм.
SD - Снежный покров - Высота снежного покрова, см.